Dewpoint
64 65 66 67 68 69 69 69 69 69 69 71 71 70 71 71 72 72 72 73 73 73 73 73 72 72 72 72 72 73 73 73 73 74 73 73 73 72 72 72 72 72 72 72 72 73 74 73 73 73 71 71 70 69 69 70 70 71 70 70 69 67 67 68 69 69 69 68 67 68 68 69 71 71 70 70 70 71 71 71 71 71 71 70 71
64 65 67 67 68 69 69 70 70 69 70 71 71 71 71 72 71 71 73 73 73 73 73 73 73 73 72 72 72 72 72 72 72 72 74 74 73 73 73 73 73 73 74 73 74 74 74 73 71 71 71 70 70 70 70 72 70 69 70 67 68 68 66 68 69 68 65 66 66 66 65 66 68 69 69 70 70 70 70 71 71 71 71 71 71
64 65 67 67 68 68 69 70 70 70 70 70 72 72 72 71 72 73 73 73 73 73 74 73 74 74 72 72 73 72 72 73 72 72 72 69 72 74 74 74 74 74 74 74 73 73 72 71 71 70 70 70 68 68 68 69 68 68 68 67 66 66 68 69 68 67 65 66 67 66 64 63 64 64 67 69 69 70 70 69 70 69 69 69 70
64 65 66 67 68 68 69 70 70 71 71 71 72 72 73 72 73 74 74 74 74 75 74 74 74 73 73 73 73 73 71 73 68 67 65 66 67 70 73 74 74 74 73 72 71 71 71 70 69 68 68 70 68 68 68 68 68 68 67 67 67 67 68 66 69 67 67 66 63 63 62 63 61 59 63 65 65 66 67 69 69 69 69 68 70
64 65 66 66 67 68 68 69 70 71 71 72 72 73 73 73 73 74 74 74 74 76 74 74 75 74 73 72 72 68 65 66 64 64 65 67 66 67 68 70 70 69 69 69 70 68 68 68 67 67 68 68 69 68 68 68 69 68 68 67 68 68 67 66 66 68 67 67 65 63 62 61 61 61 64 63 66 64 64 65 66 67 69 68 68
64 65 65 66 67 68 68 69 70 71 71 72 73 73 73 73 74 74 73 73 74 76 74 75 76 73 71 67 66 63 61 62 61 61 63 64 64 67 68 68 67 67 67 67 68 69 67 68 67 68 68 69 69 68 68 67 68 69 68 68 67 67 67 65 64 65 67 68 67 66 65 63 62 63 63 61 64 65 65 66 66 65 65 67 68
64 65 65 65 66 67 68 68 69 71 71 73 73 73 74 74 74 74 73 73 74 75 74 74 73 70 68 65 64 61 60 64 64 63 63 65 66 65 65 67 66 66 66 66 67 68 67 68 68 68 68 68 71 67 67 67 67 68 69 68 67 68 65 64 63 64 65 65 66 66 66 66 67 65 62 63 61 63 65 64 63 64 65 66 66
63 64 65 65 66 67 67 68 68 71 71 73 73 74 73 74 74 74 74 74 73 74 73 72 70 66 65 64 64 62 63 64 65 64 67 69 64 64 65 67 67 66 67 66 67 67 68 67 67 68 68 69 71 68 67 67 68 69 70 68 67 67 65 64 64 64 65 65 67 65 67 67 67 66 65 64 62 60 61 63 64 64 64 64 65
63 64 65 64 65 67 67 68 68 70 72 73 73 73 74 74 74 74 74 73 71 72 70 67 68 65 64 64 64 64 64 65 68 68 65 66 63 65 65 66 67 66 66 66 67 68 71 67 67 67 67 68 71 69 68 68 67 67 67 66 66 66 66 65 64 64 65 64 64 64 66 65 65 65 64 65 63 61 60 60 61 62 63 63 65
62 63 64 64 65 66 67 68 68 70 72 73 73 73 74 74 74 73 72 70 68 68 67 65 66 66 64 63 63 65 67 66 65 65 64 65 64 65 66 65 64 64 65 66 66 67 67 68 67 66 66 68 70 68 67 67 67 67 67 66 66 66 66 67 66 65 65 64 64 64 63 65 65 64 63 63 64 64 61 61 61 61 60 61 63
61 62 63 63 64 65 67 67 68 70 72 73 73 73 73 73 73 71 69 67 66 66 65 65 67 64 63 63 63 63 63 64 62 63 65 66 65 65 65 64 64 63 66 66 67 67 68 69 67 66 67 71 70 67 67 67 67 67 67 67 67 66 65 65 66 66 65 64 64 63 63 63 63 62 60 62 63 62 62 61 61 61 61 61 62
60 61 62 62 63 64 66 66 68 70 72 73 73 73 73 72 71 69 66 65 65 66 66 65 65 64 63 64 64 64 64 65 62 63 65 65 65 64 64 64 63 65 65 66 66 67 67 66 69 67 68 67 66 66 67 67 67 67 66 66 65 65 65 66 64 64 64 63 63 63 63 63 62 62 62 63 64 63 63 61 61 62 61 61 62
59 60 61 62 62 63 65 66 68 70 72 72 73 72 72 70 68 67 65 64 65 66 65 65 64 64 64 65 65 65 65 63 62 63 64 64 65 64 64 63 64 63 63 65 65 66 66 65 65 65 65 66 68 67 67 67 67 66 66 66 65 65 65 64 64 64 64 63 63 63 64 63 63 63 63 63 63 64 64 61 61 61 60 60 60
59 59 60 61 62 63 64 65 68 70 71 72 72 72 70 69 67 66 65 65 65 66 65 64 63 65 67 65 65 66 63 63 64 63 64 65 64 63 63 63 64 63 64 65 65 65 67 66 67 66 66 65 67 67 67 67 67 66 66 65 65 65 65 65 65 64 64 64 63 62 62 63 63 64 64 64 63 62 62 62 61 60 59 59 59
58 59 60 60 62 63 64 66 68 70 71 72 72 71 69 67 66 66 64 65 66 66 65 64 63 64 66 66 65 64 64 65 65 65 65 64 64 63 63 64 63 63 64 65 67 66 65 66 66 66 66 66 67 68 69 67 67 67 67 65 66 65 65 66 64 64 64 63 63 63 63 63 63 63 64 64 64 63 63 62 62 59 58 57 57
58 58 59 59 62 63 64 66 68 69 70 71 71 70 68 67 65 65 65 65 66 66 65 65 65 66 66 66 64 65 67 65 67 66 63 63 64 63 64 64 64 63 65 66 66 66 65 66 67 66 65 66 66 66 66 67 66 65 64 65 64 67 65 64 64 63 64 64 64 64 63 63 64 64 64 65 64 63 62 60 62 61 58 55 56
58 58 58 59 62 64 64 66 68 69 70 70 70 69 68 66 65 65 65 66 66 66 66 66 66 68 67 65 64 66 66 64 64 64 63 64 65 64 64 63 63 64 65 67 65 65 66 65 65 65 65 65 65 66 66 66 66 66 65 64 64 65 66 65 64 64 64 64 64 64 63 62 63 64 64 65 63 62 62 61 61 61 61 58 56
58 58 58 59 62 64 64 66 68 69 70 70 69 68 67 66 65 65 66 66 66 65 66 67 67 68 67 65 65 65 64 63 62 62 63 65 65 64 63 63 62 64 66 66 65 65 65 69 65 65 65 65 65 65 65 65 65 65 65 65 65 65 65 64 66 65 64 64 65 64 63 62 63 63 63 63 63 62 61 60 60 61 62 60 58
57 57 58 59 63 64 64 66 67 68 70 69 69 68 67 66 66 65 66 66 66 66 66 68 67 68 66 65 65 64 63 63 63 64 65 64 64 63 62 62 62 64 66 65 64 64 64 64 65 65 64 65 65 65 65 65 65 64 65 65 65 65 64 63 64 65 65 65 63 63 63 62 63 63 63 63 62 62 60 60 60 59 61 61 59
56 56 58 59 62 64 64 66 67 68 69 69 68 67 66 66 66 65 66 66 67 67 67 67 68 67 66 66 65 65 64 63 64 64 64 63 62 62 62 62 63 65 65 65 64 64 64 63 64 64 64 64 63 64 65 64 64 64 64 65 64 64 64 64 64 64 65 64 63 62 63 62 61 62 62 61 59 59 59 58 58 57 57 58 58
56 56 58 60 62 64 65 66 67 68 69 68 67 66 65 65 66 66 66 66 67 67 67 67 68 67 67 66 64 64 63 64 64 63 62 62 62 64 62 62 63 62 64 64 63 62 62 63 63 64 62 63 63 63 64 64 63 64 64 64 64 64 64 63 64 63 64 63 63 62 62 62 62 61 61 60 59 58 59 59 59 57 57 57 56
56 56 58 60 62 64 65 66 67 68 68 67 66 66 65 65 65 66 66 66 66 67 67 67 68 67 66 65 65 64 64 64 63 63 63 63 63 64 64 63 62 62 63 63 62 62 63 63 63 63 63 63 63 64 64 64 64 64 64 65 65 64 63 63 61 61 62 63 62 61 61 61 62 61 61 59 58 58 58 57 57 58 56 57 57
56 57 59 61 62 64 65 67 67 68 68 67 66 65 65 66 65 66 66 66 66 67 68 67 67 67 66 65 65 64 64 64 63 63 63 63 64 63 64 63 63 63 63 63 62 62 63 63 63 63 63 63 63 64 64 64 64 63 63 63 64 63 63 62 61 61 62 61 61 62 62 61 61 61 60 59 59 58 58 57 57 57 57 57 57
57 58 60 61 63 64 65 67 68 68 68 66 66 65 66 66 65 66 66 66 66 67 68 67 67 66 66 65 65 64 64 63 62 63 63 63 64 64 65 64 63 63 63 64 64 64 63 63 62 62 63 63 63 64 64 64 64 64 63 63 63 63 63 63 63 62 61 61 61 61 61 61 61 60 60 59 59 58 58 58 57 57 57 57 57
58 59 61 62 63 65 66 67 68 68 68 67 66 66 66 66 66 66 66 66 66 67 67 67 66 66 65 65 64 64 64 63 63 63 63 64 64 63 63 63 63 63 63 63 63 64 63 63 63 62 63 63 63 64 64 65 65 65 64 64 63 62 62 62 62 62 64 62 62 61 61 61 60 60 60 59 59 58 58 58 57 57 58 58 58
59 60 61 62 63 66 67 67 68 68 68 67 66 66 66 67 66 66 67 67 67 67 67 67 66 65 65 65 65 64 64 64 64 63 63 63 63 63 61 62 62 61 61 61 61 62 63 62 62 63 63 63 63 64 64 64 65 65 64 63 63 62 61 61 61 61 61 61 61 61 61 61 60 59 59 59 59 58 58 58 57 57 58 58 57
58 59 61 62 63 65 67 67 68 68 68 67 66 66 66 67 67 66 66 67 67 67 67 66 66 65 65 65 65 65 64 64 64 63 63 63 62 61 59 58 61 59 59 59 59 59 62 61 62 62 63 63 63 63 63 64 64 64 64 63 62 61 61 61 61 62 62 62 62 61 61 61 60 59 59 58 58 58 58 58 59 58 58 57 58
58 58 59 62 62 64 66 67 68 68 68 67 66 66 66 66 66 66 66 67 67 67 66 66 66 65 65 65 65 65 64 64 63 63 62 62 61 60 59 60 62 60 59 59 60 60 59 62 61 60 60 62 61 61 61 62 64 64 64 63 62 62 61 61 61 62 62 62 62 61 61 60 60 59 59 58 58 58 58 58 58 58 58 58 58
58 58 58 61 62 63 64 66 67 68 67 66 65 65 66 66 66 66 65 66 66 66 66 65 65 65 65 65 65 65 64 64 63 62 62 62 61 61 60 61 63 61 63 61 60 60 59 61 60 60 60 60 61 61 61 62 64 64 64 63 62 62 62 61 61 61 61 61 61 61 61 61 62 63 59 58 58 58 58 58 58 59 58 58 58
58 58 58 59 61 63 63 65 66 67 66 65 65 65 65 65 65 64 64 65 65 66 66 65 65 65 65 65 64 65 64 63 63 62 62 62 62 61 61 61 61 61 62 63 61 61 60 59 59 59 60 61 62 62 64 64 65 65 63 63 62 62 62 62 62 61 60 60 60 60 62 64 62 61 60 59 57 56 56 58 59 58 58 58 59
59 59 59 59 60 62 64 64 65 65 65 65 65 65 64 63 64 63 63 64 64 65 65 65 65 65 65 64 64 64 64 63 63 62 62 62 61 61 61 61 61 61 61 62 62 61 61 60 59 58 59 61 61 61 62 62 63 64 64 62 62 63 63 62 62 60 60 60 60 60 60 63 64 64 64 62 60 58 57 56 55 56 57 59 59
62 60 60 60 60 61 63 64 64 64 65 65 64 64 64 62 62 61 61 63 64 64 65 65 65 65 65 65 64 64 63 63 62 62 62 61 61 61 61 61 61 61 62 62 61 61 60 59 60 60 59 59 59 62 59 60 61 62 63 64 63 63 63 62 61 60 60 60 60 60 60 61 62 62 62 62 61 60 58 57 56 55 55 55 56
65 64 62 62 62 62 63 64 64 64 64 64 64 63 63 62 60 60 61 63 63 64 64 65 65 65 65 65 64 64 63 63 62 62 62 62 61 61 61 61 61 61 62 62 62 61 61 61 61 60 59 60 60 61 59 59 59 60 61 63 62 62 62 61 61 60 60 60 60 60 60 61 61 63 64 62 61 61 59 58 56 56 55 55 56
62 64 65 64 63 63 63 64 64 63 63 64 64 63 63 62 60 61 61 62 63 64 64 64 64 64 64 64 64 63 63 62 62 62 62 61 61 61 61 61 62 62 62 62 62 61 61 61 61 60 60 60 60 61 59 58 58 58 59 61 61 61 61 61 61 61 61 60 60 60 60 60 60 60 60 60 59 59 59 59 59 59 60 60 58
60 63 65 66 65 65 64 64 64 64 63 64 64 63 61 59 61 61 61 62 63 63 63 63 62 62 63 62 62 62 62 62 62 62 62 61 61 61 61 62 62 62 61 61 61 61 61 61 60 61 60 60 60 60 57 56 55 56 57 60 60 61 61 61 61 61 61 61 60 60 60 60 60 60 60 60 59 59 58 58 58 59 59 59 58
63 64 65 66 66 66 65 65 65 64 64 64 63 60 59 59 61 60 61 61 62 62 61 61 61 61 62 62 62 61 61 61 61 62 61 61 61 61 61 62 63 62 62 62 62 61 61 61 61 61 60 59 59 58 56 55 55 55 58 60 59 59 60 60 60 60 61 61 61 61 61 60 60 60 58 57 58 59 57 56 57 57 56 56 57
61 65 66 67 67 66 66 66 65 65 64 63 61 59 58 59 59 60 60 61 61 62 63 63 62 62 63 63 62 61 61 61 62 62 61 61 61 61 62 62 63 62 62 61 61 61 61 61 60 60 59 58 59 59 55 54 54 55 57 58 59 60 60 60 60 60 61 61 61 61 61 61 60 59 58 56 56 56 56 55 54 54 55 56 57
54 60 64 66 67 66 67 67 66 65 64 62 59 58 57 57 57 59 60 60 58 60 64 63 62 62 63 63 63 62 62 62 62 62 62 62 61 61 62 64 63 62 62 61 61 61 61 61 60 59 59 58 58 58 54 52 53 54 58 58 59 59 59 59 60 60 60 60 60 63 65 61 58 58 56 54 55 54 53 53 53 54 55 56 57
57 61 63 65 66 66 67 67 66 64 63 61 59 57 56 56 57 58 59 59 57 58 61 62 63 64 64 64 63 63 62 62 62 62 62 62 62 63 63 64 63 63 63 63 63 62 62 62 61 60 62 60 58 58 53 52 53 54 59 60 60 60 58 59 59 59 58 58 57 59 60 59 57 57 53 52 51 51 53 53 53 55 56 56 57
68 69 69 68 68 68 67 66 65 64 63 60 58 57 57 57 57 59 60 58 57 58 59 61 63 65 64 64 64 64 63 62 62 62 63 63 63 63 63 63 64 64 63 62 63 62 61 61 61 60 59 61 59 60 57 51 51 52 56 60 60 59 59 57 56 57 57 55 54 54 57 56 54 53 51 49 49 50 52 53 55 56 56 56 58
69 70 71 70 69 68 67 66 65 64 62 62 62 62 60 61 61 58 58 58 58 58 60 62 64 65 65 65 65 64 63 63 63 62 63 63 64 64 63 63 63 62 61 61 61 61 61 61 61 60 60 60 60 60 59 51 51 52 55 58 58 56 55 55 55 55 54 53 54 54 55 56 54 53 49 47 47 48 50 54 55 56 57 58 54
70 70 70 69 68 67 65 64 64 64 64 63 63 62 59 61 62 61 59 57 58 59 61 63 64 65 65 65 65 65 64 63 63 64 63 64 64 64 63 63 63 61 60 60 60 60 60 60 60 61 61 61 61 63 59 54 52 51 52 55 55 56 57 55 53 54 53 53 54 54 55 56 53 52 48 46 46 47 48 55 56 52 51 50 54
68 68 68 67 66 65 65 65 65 65 65 64 62 62 61 62 61 59 58 58 59 62 63 64 65 65 65 65 64 64 64 64 64 63 63 63 63 63 63 62 62 61 60 60 59 59 60 57 59 59 60 61 60 61 60 58 52 50 50 51 53 55 54 56 54 54 53 54 54 55 56 56 52 48 45 45 46 47 47 51 50 48 49 52 54
65 65 65 64 64 64 65 65 65 65 65 64 62 62 62 61 60 60 61 63 63 63 64 65 65 65 65 65 64 64 64 64 64 63 62 62 62 62 61 62 62 61 60 59 59 59 59 58 58 58 58 59 60 59 61 59 55 50 48 47 48 49 50 54 55 54 54 54 54 54 55 51 46 44 44 45 46 48 54 50 48 49 51 53 55
64 64 65 64 64 64 64 64 64 65 65 64 63 62 63 62 62 65 66 66 65 64 64 64 65 65 66 64 64 64 63 63 63 62 62 61 61 61 60 61 61 60 59 58 58 58 58 58 57 57 57 57 58 60 60 60 57 52 48 46 47 48 48 48 51 53 55 55 54 51 47 46 47 46 47 48 48 48 48 48 48 50 54 53 54
63 63 64 64 64 64 63 63 64 65 66 66 66 65 64 64 65 64 64 64 64 65 65 66 66 66 65 63 62 62 62 62 61 61 61 62 61 61 60 60 60 59 59 58 58 58 58 57 57 57 57 58 59 61 60 59 59 56 52 49 50 51 52 52 53 54 53 52 50 49 49 50 50 52 54 54 57 56 53 52 53 54 53 53 53
62 63 64 63 63 63 63 63 64 65 65 65 65 64 63 63 63 61 61 62 61 63 65 66 66 65 64 62 61 60 61 60 60 60 60 61 60 60 60 60 59 59 58 58 58 58 57 57 57 57 57 58 59 60 59 59 57 55 54 55 53 54 55 56 56 54 54 53 52 52 52 50 50 51 56 56 56 56 55 54 52 54 53 53 53
62 62 63 63 63 63 63 63 63 63 64 64 63 63 62 63 63 62 59 63 65 65 65 65 66 65 64 63 62 64 62 60 60 60 60 60 60 60 59 59 59 58 58 58 58 58 57 57 57 58 58 58 58 58 55 55 52 52 51 49 51 52 52 51 51 51 49 50 51 51 53 57 57 55 55 55 54 53 53 52 51 51 51 52 53
61 61 62 62 63 63 62 62 61 62 63 63 64 64 64 64 62 62 65 64 65 66 65 66 66 65 64 64 64 65 61 61 59 54 52 51 54 58 59 58 53 50 54 58 58 57 58 59 59 59 58 58 57 56 55 50 52 50 49 47 48 48 48 48 49 45 49 50 50 52 52 51 51 52 51 50 49 50 51 49 49 49 49 48 49
61 61 62 62 62 61 61 61 60 60 61 62 61 60 60 60 60 61 62 63 64 65 64 65 65 65 65 64 62 62 61 60 56 53 51 49 48 43 44 53 54 49 45 42 46 56 57 57 55 53 54 58 57 55 48 43 41 41 41 42 44 42 40 43 43 43 45 47 49 50 50 50 50 49 49 49 49 48 48 47 47 49 47 46 48
62 62 61 61 60 60 59 58 57 58 58 58 57 57 58 61 62 62 62 62 62 61 60 60 60 60 61 63 61 60 60 59 57 54 53 52 50 49 41 41 45 46 43 38 38 39 42 47 55 52 50 47 47 44 41 40 40 40 40 39 39 38 39 39 40 45 49 50 51 49 48 49 49 48 49 47 47 47 48 46 46 46 44 45 46